Find Starlink 32788

NORAD ID: 62502 Int'l Des: 2025-003 Owner: SPXS Country: US Constellation: starlink operational
LEOCIRCULAR

实时位置

正在加载3D地球...

关于 Starlink 32788

正在加载描述...

即将过境

Passes for default location (London). Set your location on the main map for personalized predictions.

高度历史

Loading altitude history...

两行轨道根数

1 62502U 25003R 26124.60206997 .00014437 00000-0 53299-3 0 9999
2 62502 42.9980 333.1195 0001741 275.4054 84.6599 15.27588469 75103
Epoch: May 4, 2026 • Age: 8 hours

当前状态

高度 485.6 km
速度 7.63 km/s
星下点 36.15°N, 178.75°W
发射日期 Jan 6, 2025
运行时间 1.3 years
类型 internet

技术详情

分类 Payload
质量 730.00 kg
干质量 700.00 kg
总质量 730.00 kg
长度 0.30 m
直径 4.10 m
跨度 29.00 m
形状 Box + pan
制造商 SPXS
平台类型 Starlink V2M
阶段状态 In Orbit
所有者/国家 SPXS/US

Most Searched